Location: Unspecified
(47.7670°N, 8.8522°E)
Time: 07:08:35
(UTC+01:00)

ISS - Pass Details

Date: 31 January 2019
Orbit: 403 x 411 km, 51.6° (Epoch: 18 February)

Event Time Altitude Azimuth Distance (km) Brightness Sun altitude
Rises 18:09:09 0° 269° (W) 2,330 1.8 -8.0°
Reaches altitude 10° 18:11:18 10° 275° (W) 1,472 0.3 -8.4°
Maximum altitude 18:14:29 45° 350° (N) 568 -3.2 -8.9°
Enters shadow 18:17:15 13° 63° (ENE) 1,304 -1.9 -9.3°
